カタログに戻る

ORS 5 SENSORSAT

運用中軍事VLEO
NORAD 42921·PAYLOAD·🇺🇸 United States

打ち上げ Aug 26, 2017 から Cape Canaveral Space Force Station

Loading…

次のパス (今後24時間)

TLE

最新Source: Space-Track

元期: Sep 13, 2026, 16:25 UTC

1 42921U 17050A   26256.68432741  .00002297  00000-0  11076-3 0  9995
2 42921   0.0476 206.2784 0010390 302.7851 210.9977 15.01148444494346

AllMySatでORS 5 SENSORSATをリアルタイム追跡

Download on the App Store